Jose Godoy

Chief Scout - Central Espanol
2 Jan 2028
Sunday
Process

Personality

Adaptability (18) Ambition (7) Controversy (9) Loyalty (9) Pressure (11) Professionalism (2) Sportsmanship (2) Temperament (8)

Profile

Coaching Style Democratic
License Continental B
Determination 5
Man Management 9
Motivating 4
Discipline 10
Job Satisfaction
100%
Fatigue
0%
Role Chief Scout
Wage 55.3K p/w
Contract 14.03.2028

Performance

Behaviour Good
Training Effectiveness
43%
Player Development
10%
Injury Prevention
10%
Tactical Implementation
25%

Recent Events

Contract negotiation started now
Attended a recruitment meeting now
Contract negotiation started now
Contract negotiation started now
Contract negotiation started now
Contract negotiation started 7d ago
Contract negotiation started 7d ago
Contract negotiation started 7d ago

Currently Monitoring

102
Player Club Status Ability Confidence Watched Last Observed Latest Vote
Faustino Fernández Colon Active 75 / 103 58% 1 14.06.2027 -
Ian López Tacuarembo Negotiating 92 / 96 55% 1 01.12.2026 -
Rodrigo Trejo Sibenik Active 102 / 105 40% 1 29.11.2026 -
Nardin Mulahusejnović Vojvodina Active 131 / 138 40% 1 29.11.2026 -
Aldair Ramírez Istra 1961 Active 94 / 87 40% 1 28.11.2026 -
Oleh Kozhushko Bukovyna Active 124 / 108 40% 1 28.11.2026 -
Gonzalo Valenzuela Radnicki Nis Active 108 / 102 40% 1 25.11.2026 -
Boris Budimir Zadar Active 92 / 118 40% 1 25.11.2026 -
Alejandro Viniegra Botev Vratsa Active 95 / 95 40% 1 24.11.2026 -
Gaspar Duarte Rosario Central Active 115 / 125 40% 1 23.11.2026 -
Matty Stevens AFC Wimbledon Active 110 / 97 40% 1 23.11.2026 -
Matías Contrera Hrvatski Dragovoljac Active 110 / 110 40% 2 22.11.2026 -
Lazar Tufegdžić Cukaricki Active 119 / 125 40% 1 22.11.2026 -
Jonathan Dellarossa Lokomotiv Plovdiv Active 121 / 110 40% 3 21.11.2026 -
Marcos Cuenca Zaragoza Active 94 / 118 40% 2 20.11.2026 -
Mariano Bracamonte Deportivo Riestra Active 126 / 108 40% 2 20.11.2026 -
Isaac Matondo Koper Active 122 / 98 40% 2 20.11.2026 -
Juan Pablo Gallego Fehervar Active 92 / 121 40% 1 20.11.2026 -
Alexis Coman Chaika Active 77 / 92 40% 2 19.11.2026 -
Dejan Zukić Vojvodina Active 139 / 111 40% 1 17.11.2026 -
Isaac Inusah Wa All Stars Active 121 / 139 40% 1 17.11.2026 -
Peter Valjent FK Senica Active 125 / 128 40% 2 16.11.2026 -
Manuel Pagano Imotski Active 102 / 87 40% 4 14.11.2026 -
Lorent Tolaj Plymouth Argyle Active 135 / 132 40% 1 11.11.2026 -
Lucas Ferraz Vila Asante Kotoko Active 113 / 84 40% 1 10.11.2026 -
Bienvenue Kanakimana Zbrojovka Brno Active 127 / 133 40% 1 10.11.2026 -
Tomás Ángel FC Midtjylland Active 100 / 129 40% 2 08.11.2026 -
Layton Stewart Barnet Active 85 / 89 40% 1 07.11.2026 -
Jáder Valencia Deportes Tolima Active 107 / 117 40% 3 06.11.2026 -
Tio Cipot NK Maribor Active 125 / 127 40% 1 06.11.2026 -
Sandi Zajc NK Domzale Active 96 / 95 40% 1 03.11.2026 -
Justin-Noël Kalumba Mallorca Active 106 / 127 40% 2 02.11.2026 -
Bruno Larregui Juventud Active 122 / 111 40% 1 28.10.2026 -
Daniel Vašulín Zbrojovka Brno Active 100 / 124 40% 1 28.10.2026 -
Ekain Orobengoa Real Sociedad Active 113 / 123 40% 3 27.10.2026 -
Brayan Alcócer Oleksandriya Active 88 / 112 40% 1 27.10.2026 -
Gustavo Rigazzi Grodig Active 93 / 92 40% 1 26.10.2026 -
Vitalii Dakhnovskyi Bukovyna Active 103 / 118 40% 1 25.10.2026 -
Vegard Erlien Tromso Active 134 / 107 40% 1 25.10.2026 -
Michael Vadulli Audax Italiano Active 109 / 118 40% 3 22.10.2026 -
Vinko Rozić Istra 1961 Active 122 / 109 40% 1 21.10.2026 -
Job Ochieng Real Sociedad Active 122 / 113 40% 1 21.10.2026 -
Léo Pereira CSKA Sofia Active 116 / 117 40% 1 19.10.2026 -
Santino Robles Zvezda Active 92 / 72 40% 1 19.10.2026 -
Will Swan Bradford City Active 109 / 115 40% 1 18.10.2026 -
John Valladares Santiago Wanderers Active 91 / 96 40% 2 16.10.2026 -
José Balza Deportivo Tachira Active 103 / 109 40% 3 15.10.2026 -
Iván Torregrosa Sibenik Active 102 / 79 40% 1 15.10.2026 -
Jorge Gonzalez Viitorul Active 92 / 93 40% 2 13.10.2026 -
Luciano Pereyra AEL Larisa Active 113 / 87 40% 1 12.10.2026 -
Yerko Leiva Union La Calera Active 120 / 123 40% 1 12.10.2026 -
Cristián Blanco Slavia Prague Active 112 / 122 40% 1 11.10.2026 -
Iván Rozas Antofagasta Active 91 / 102 40% 1 11.10.2026 -
Fernando Mimbacas Juventud Active 104 / 104 40% 2 07.10.2026 -
Mustapha Sangaré Levski Active 112 / 116 40% 1 06.10.2026 -
Felipe Fernández CFR Cluj Active 102 / 115 40% 1 06.10.2026 -
Alexis Alégué Zbrojovka Brno Active 136 / 129 40% 1 06.10.2026 -
Leandro Suhr Boston River Active 110 / 107 40% 2 28.09.2026 -
Brayan Hurtado Antofagasta Active 93 / 112 40% 2 26.09.2026 -
Oke Kayode Bendel Insurance Active 92 / 91 40% 1 26.09.2026 -
Christian Ebere Cruz Azul Active 128 / 131 40% 3 25.09.2026 -
Jesús Yendis Caracas Active 116 / 116 40% 1 25.09.2026 -
Andres Lioi Chaco For Ever Active 113 / 121 40% 1 25.09.2026 -
Ramiro Ruiz Rodríguez Atlético Tucumán Active 112 / 131 40% 3 24.09.2026 -
Jimmy Evans Universidad Catolica Active 106 / 94 40% 1 24.09.2026 -
Juan Romero Olimpia Active 115 / 105 40% 3 21.09.2026 -
Salomon Ramirez Atletico Venezuela Active 102 / 87 40% 1 21.09.2026 -
Enzo Larrosa Independiente Medellin Active 97 / 114 40% 1 17.09.2026 -
Hernán Luna Valur Active 106 / 79 40% 1 17.09.2026 -
Ricardo Echeverría Santos Laguna Active 95 / 101 40% 1 15.09.2026 -
José Rivas Gamboa Trujillanos Active 91 / 107 40% 1 14.09.2026 -
Marcelo Fernández Libertad Active 121 / 101 40% 1 14.09.2026 -
Nahuel Roldán Deportivo La Coruña Active 109 / 104 40% 2 10.09.2026 -
Francisco Galván Deportivo Municipal Active 119 / 114 40% 1 10.09.2026 -
Roberto de la Rosa Monterrey Active 135 / 130 40% 1 07.09.2026 -
Jeriel De Santis Caracas Active 109 / 107 40% 1 05.09.2026 -
Michael Nike Patriotas Active 100 / 97 40% 1 04.09.2026 -
Juan David Rueda Alianza Petrolera Active 96 / 109 40% 2 03.09.2026 -
Ángelo Lucena Carabobo Active 94 / 118 40% 1 03.09.2026 -
Bairon Monroy San Marcos de Arica Active 101 / 84 40% 1 30.08.2026 -
Cristian Rivas Bogota Active 93 / 105 40% 1 29.08.2026 -
José Alvarado Leon Active 124 / 99 40% 1 29.08.2026 -
Ronny Maza Aragua Active 109 / 93 40% 1 28.08.2026 -
Julián Brea Cobresal Active 97 / 101 40% 1 27.08.2026 -
José Barragán Zamora Active 85 / 90 40% 1 27.08.2026 -
Yeferson Rodallega Envigado Active 106 / 112 40% 1 27.08.2026 -
Rômulo Tigres Active 106 / 111 40% 1 27.08.2026 -
Jeremy Márquez Cruz Azul Active 127 / 131 40% 1 26.08.2026 -
Ruyery Blanco Alianza Petrolera Active 114 / 116 40% 1 24.08.2026 -
Adalberto Peñaranda Deportivo Tachira Active 112 / 106 40% 1 24.08.2026 -
César Magallan Estudiantes de Merida Active 110 / 98 40% 1 23.08.2026 -
Juan Sierra La Equidad Active 123 / 119 40% 1 22.08.2026 -
Rodrigo Pollero Deportivo Tachira Active 100 / 118 40% 1 17.08.2026 -
Mauricio Márquez Caracas Active 98 / 104 40% 1 17.08.2026 -
Alejandro Piedrahita Deportivo Pereira Active 115 / 122 40% 1 16.08.2026 -
Valentín Robaldo Alianza Atletico Active 91 / 99 40% 1 14.08.2026 -
Adolfo Muñoz UTC Active 112 / 122 40% 1 11.08.2026 -
Ronaldo Peña Deportivo Lara Active 92 / 112 40% 2 10.08.2026 -
Julian Herrera Cortulua Active 130 / 117 40% 1 09.08.2026 -
Eber Moreno Deportivo Pereira Active 117 / 99 40% 1 06.08.2026 -
Diego Rossi Monterrey Active 127 / 134 40% 1 04.08.2026 -
Julen Lobete Málaga Active 126 / 103 40% 1 02.08.2026 -